Date String (YYYY-MM-DD hh:mm:ss) UTC,Instrument flags,Ambient pressure (hPa),Sample flow (lpm),Bypass flow (lpm),Sample temperature (°C),Ambient temperature (°C),ASC tube jacket temperature (°C),LED temperature (°C),Box temperature (°C),Sample RH (%),Span deviation,Mass concentration (μg/m³),Mass concentration (μg/m³),Mass concentration (μg/m³)
DateTimeUTC,F1_M11,P_M11,Q1_M11,Q2_M11,T1_M11,T2_M11,T3_M11,T4_M11,T5_M11,U1_M11,ZSPAN_M11,X0_M11,X2_M11,X1_M11
2022-11-27 05:00:00,,0823.5,5.00,0.00,26.5,24.9,00.0,35.5,28.3,16.6,0000.0,0007.78,0001.77,0001.12
2022-11-27 05:01:00,,0823.4,4.98,0.00,26.5,25.0,00.0,35.5,28.3,16.6,0000.0,0008.39,0001.80,0001.13
2022-11-27 05:02:00,,0823.4,5.00,0.00,26.5,25.0,00.0,35.5,28.2,16.4,0000.0,0008.37,0001.79,0001.13
2022-11-27 05:03:00,,0823.5,5.00,0.00,26.5,25.0,00.0,35.5,28.3,16.3,0000.0,0007.93,0001.78,0001.13
2022-11-27 05:04:00,,0823.4,5.01,0.00,26.5,25.0,00.0,35.5,28.3,16.3,0000.0,0007.92,0001.76,0001.13
2022-11-27 05:05:00,,0823.5,5.01,0.00,26.5,25.0,00.0,35.5,28.3,16.3,0000.0,0007.97,0001.69,0001.13
2022-11-27 05:06:00,,0823.4,5.00,0.00,26.5,25.0,00.0,35.5,28.3,16.4,0000.0,0008.35,0001.66,0001.13
2022-11-27 05:07:00,,0823.4,5.00,0.00,26.5,25.1,00.0,35.5,28.4,16.1,0000.0,0008.06,0001.65,0001.13
2022-11-27 05:08:00,,0823.3,4.98,0.00,26.5,25.1,00.0,35.5,28.4,15.9,0000.0,0008.27,0001.63,0001.13
2022-11-27 05:09:00,,0823.4,5.00,0.00,26.5,25.1,00.0,35.5,28.4,15.5,0000.0,0007.96,0001.62,0001.14
2022-11-27 05:10:00,,0823.3,5.01,0.00,26.5,25.1,00.0,35.5,28.4,15.7,0000.0,0007.60,0001.61,0001.13
2022-11-27 05:11:00,,0823.4,5.00,0.00,26.5,25.1,00.0,35.5,28.4,15.9,0000.0,0007.47,0001.55,0001.13
2022-11-27 05:12:00,,0823.3,5.00,0.00,26.6,25.1,00.0,35.5,28.4,15.7,0000.0,0006.86,0001.54,0001.13
2022-11-27 05:13:00,,0823.3,5.01,0.00,26.6,25.2,00.0,35.5,28.4,15.3,0000.0,0007.16,0001.57,0001.13
2022-11-27 05:14:00,,0823.3,5.01,0.00,26.6,25.2,00.0,35.5,28.4,14.9,0000.0,0006.92,0001.56,0001.13
2022-11-27 05:15:00,,0823.3,4.98,0.00,26.6,25.2,00.0,35.5,28.5,14.7,0000.0,0007.26,0001.62,0001.15
2022-11-27 05:16:00,,0823.3,5.01,0.00,26.6,25.2,00.0,35.5,28.5,14.7,0000.0,0007.20,0001.66,0001.14
2022-11-27 05:17:00,,0823.3,5.00,0.00,26.6,25.2,00.0,35.5,28.5,14.6,0000.0,0006.27,0001.68,0001.15
2022-11-27 05:18:00,,0823.4,5.00,0.00,26.6,25.2,00.0,35.5,28.5,14.7,0000.0,0005.65,0001.67,0001.15
2022-11-27 05:19:00,,0823.3,5.00,0.00,26.6,25.2,00.0,35.5,28.5,14.7,0000.0,0005.31,0001.70,0001.15
2022-11-27 05:20:00,,0823.4,5.00,0.00,26.6,25.2,00.0,35.5,28.4,14.8,0000.0,0005.39,0001.72,0001.14
2022-11-27 05:21:00,,0823.4,5.00,0.00,26.6,25.2,00.0,35.5,28.4,14.9,0000.0,0005.04,0001.70,0001.14
2022-11-27 05:22:00,,0823.4,5.00,0.00,26.6,25.2,00.0,35.5,28.5,15.1,0000.0,0004.88,0001.75,0001.15
2022-11-27 05:23:00,,0823.4,5.00,0.00,26.6,25.2,00.0,35.5,28.5,15.1,0000.0,0004.53,0001.78,0001.15
2022-11-27 05:24:00,,0823.4,5.00,0.00,26.6,25.2,00.0,35.5,28.5,15.1,0000.0,0004.33,0001.79,0001.15
2022-11-27 05:25:00,,0823.3,5.00,0.00,26.6,25.2,00.0,35.5,28.4,15.1,0000.0,0004.05,0001.80,0001.14
2022-11-27 05:26:00,,0823.4,5.00,0.00,26.6,25.2,00.0,35.5,28.4,15.1,0000.0,0003.73,0001.77,0001.12
2022-11-27 05:27:00,,0823.4,5.00,0.00,26.6,25.1,00.0,35.5,28.4,15.4,0000.0,0003.41,0001.72,0001.12
2022-11-27 05:28:00,,0823.4,5.00,0.00,26.6,25.1,00.0,35.5,28.4,15.8,0000.0,0003.60,0001.72,0001.12
2022-11-27 05:29:00,,0823.4,5.00,0.00,26.6,25.1,00.0,35.5,28.4,15.9,0000.0,0005.20,0001.74,0001.11
2022-11-27 05:30:00,,0823.4,5.00,0.00,26.6,25.1,00.0,35.5,28.3,15.9,0000.0,0005.17,0001.70,0001.10
2022-11-27 05:31:00,,0823.4,5.00,0.00,26.6,25.1,00.0,35.5,28.3,15.9,0000.0,0005.31,0001.68,0001.09
2022-11-27 05:32:00,,0823.4,4.99,0.00,26.6,25.1,00.0,35.5,28.4,15.9,0000.0,0005.61,0001.73,0001.09
2022-11-27 05:33:00,,0823.4,5.00,0.00,26.6,25.1,00.0,35.5,28.4,15.9,0000.0,0005.53,0001.69,0001.09
2022-11-27 05:34:00,,0823.4,5.00,0.00,26.6,25.1,00.0,35.5,28.4,15.7,0000.0,0005.85,0001.67,0001.08
2022-11-27 05:35:00,,0823.3,5.01,0.00,26.6,25.1,00.0,35.5,28.4,15.6,0000.0,0006.69,0001.68,0001.10
2022-11-27 05:36:00,,0823.4,5.00,0.00,26.6,25.1,00.0,35.5,28.3,15.6,0000.0,0006.79,0001.70,0001.11
2022-11-27 05:37:00,,0823.3,5.00,0.00,26.6,25.1,00.0,35.5,28.4,15.8,0000.0,0006.86,0001.72,0001.12
2022-11-27 05:38:00,,0823.3,5.00,0.00,26.6,25.1,00.0,35.5,28.4,15.8,0000.0,0007.58,0001.75,0001.13
2022-11-27 05:39:00,,0823.4,5.01,0.00,26.6,25.1,00.0,35.5,28.4,15.9,0000.0,0008.41,0001.74,0001.12
2022-11-27 05:40:00,,0823.4,5.00,0.00,26.6,25.1,00.0,35.5,28.4,15.9,0000.0,0008.09,0001.70,0001.13
2022-11-27 05:41:00,,0823.3,5.00,0.00,26.6,25.1,00.0,35.5,28.4,15.8,0000.0,0008.03,0001.71,0001.14
2022-11-27 05:42:00,,0823.4,5.00,0.00,26.6,25.1,00.0,35.5,28.4,15.7,0000.0,0007.98,0001.74,0001.16
2022-11-27 05:43:00,,0823.4,5.00,0.00,26.6,25.1,00.0,35.5,28.5,15.3,0000.0,0008.35,0001.73,0001.17
2022-11-27 05:44:00,,0823.4,4.99,0.00,26.6,25.1,00.0,35.5,28.5,15.2,0000.0,0008.86,0001.77,0001.18
2022-11-27 05:45:00,,0823.4,5.00,0.00,26.6,25.1,00.0,35.5,28.4,15.2,0000.0,0008.94,0001.79,0001.20
2022-11-27 05:46:00,,0823.3,5.00,0.00,26.6,25.1,00.0,35.5,28.4,15.1,0000.0,0008.61,0001.81,0001.21
2022-11-27 05:47:00,,0823.4,5.00,0.00,26.6,25.1,00.0,35.5,28.4,15.2,0000.0,0008.63,0001.83,0001.21
2022-11-27 05:48:00,,0823.4,4.99,0.00,26.6,25.1,00.0,35.5,28.4,15.1,0000.0,0008.65,0001.82,0001.22
2022-11-27 05:49:00,,0823.4,5.00,0.00,26.6,25.1,00.0,35.5,28.5,15.1,0000.0,0008.29,0001.83,0001.22
2022-11-27 05:50:00,,0823.3,5.00,0.00,26.6,25.1,00.0,35.5,28.5,15.0,0000.0,0007.13,0001.85,0001.23
2022-11-27 05:51:00,,0823.4,5.00,0.00,26.6,25.1,00.0,35.5,28.4,15.0,0000.0,0006.22,0001.88,0001.24
2022-11-27 05:52:00,,0823.4,5.00,0.00,26.6,25.1,00.0,35.5,28.4,15.0,0000.0,0006.31,0001.92,0001.25
2022-11-27 05:53:00,,0823.4,5.00,0.00,26.6,25.1,00.0,35.5,28.5,14.9,0000.0,0006.21,0001.90,0001.25
2022-11-27 05:54:00,,0823.4,5.00,0.00,26.6,25.1,00.0,35.5,28.4,14.8,0000.0,0005.33,0001.89,0001.25
2022-11-27 05:55:00,,0823.4,5.00,0.00,26.6,25.1,00.0,35.5,28.4,14.7,0000.0,0004.47,0001.87,0001.26
2022-11-27 05:56:00,,0823.3,5.00,0.00,26.6,25.1,00.0,35.5,28.5,14.7,0000.0,0003.82,0001.83,0001.26
2022-11-27 05:57:00,,0823.3,5.00,0.00,26.6,25.1,00.0,35.5,28.4,14.7,0000.0,0003.56,0001.81,0001.25
2022-11-27 05:58:00,,0823.3,5.00,0.00,26.6,25.1,00.0,35.5,28.4,14.7,0000.0,0003.57,0001.81,0001.26
2022-11-27 05:59:00,,0823.2,5.01,0.00,26.6,25.1,00.0,35.5,28.4,14.8,0000.0,0004.52,0001.82,0001.27
